Theta_e
301 294 292 291 293 294 296 297 296 291 295 291 288 286 285 286 286 287 288 291 288 289 287 288 288 290 293 294 293 289 289 290 290 291 292 294 295 295 296 300 304 306 309 312 311 313 314 316 318 319 320 321 321 321 322 322 323 324 325 325 325 327 328 329 329 330 329 328 328 328 327 327 328 327 327 327 327 328 328 327 327 327 327 328 327 327
299 292 292 295 295 295 295 294 293 292 291 290 287 286 285 285 285 287 289 289 289 289 285 284 286 289 290 293 294 288 289 291 290 291 291 292 293 295 295 296 298 302 304 304 305 304 309 313 314 317 319 318 319 320 321 321 322 324 324 324 325 326 326 328 330 330 330 330 330 329 328 329 329 327 326 327 328 328 329 328 328 327 327 328 328 327
293 292 294 295 296 296 294 292 292 292 290 288 288 285 285 286 286 287 288 289 288 289 288 283 287 289 291 293 295 290 292 293 292 293 295 294 293 293 294 295 296 296 298 299 301 303 304 308 311 314 316 318 320 321 321 322 323 323 323 324 325 326 325 327 329 330 330 332 332 332 331 330 329 331 332 332 331 330 330 329 329 329 329 328 328 327
289 293 296 296 295 294 292 293 291 290 290 288 287 286 286 287 286 287 288 289 289 288 287 286 284 288 289 291 292 292 291 292 293 292 293 293 294 294 295 296 296 295 296 296 298 299 300 302 306 309 313 316 319 320 321 321 321 322 322 324 324 325 325 326 327 326 331 331 332 333 332 332 332 329 329 331 331 330 329 328 329 330 329 329 328 328
291 295 297 294 294 294 292 292 292 291 290 289 289 286 284 285 287 286 285 287 287 287 286 286 286 287 289 291 292 292 288 289 292 291 290 290 292 294 294 294 295 296 296 297 297 297 298 298 302 307 311 314 316 317 319 320 321 322 323 323 324 324 324 326 325 326 328 327 327 327 324 324 324 321 324 325 325 327 327 328 328 328 329 329 329 330
289 293 295 293 293 293 292 290 291 292 289 289 289 290 288 287 287 286 287 286 284 282 285 287 283 283 283 286 289 292 287 289 287 289 291 293 293 292 292 293 295 296 296 297 297 298 297 298 299 302 307 310 314 316 318 321 321 322 323 323 323 324 324 324 325 326 326 326 327 324 323 322 322 323 322 322 323 323 324 326 327 329 329 329 329 330
290 290 295 292 291 291 292 291 291 294 290 289 291 289 288 288 287 287 286 286 281 281 286 285 283 279 283 286 287 286 285 288 289 287 290 291 291 291 293 294 295 295 296 295 295 296 295 296 297 299 303 308 311 314 317 319 321 322 322 323 323 324 324 324 324 324 324 326 326 326 326 326 325 324 326 326 327 327 327 327 327 328 328 330 330 329
288 290 290 291 291 290 290 290 291 295 291 288 290 290 289 287 287 287 288 286 282 283 286 283 283 279 281 288 289 284 284 286 287 288 288 290 291 292 293 294 294 295 295 296 296 296 296 296 296 297 300 304 308 312 315 317 318 320 321 322 322 323 322 324 324 323 324 325 325 325 326 326 326 326 327 327 326 328 327 326 327 327 327 326 327 329
291 287 290 289 290 289 290 292 292 295 291 287 288 290 289 290 289 289 288 285 284 284 282 283 285 281 279 283 284 283 288 289 290 291 290 291 291 291 292 294 295 295 295 295 296 296 296 296 296 296 297 301 305 309 312 314 317 319 320 321 321 322 322 322 323 323 323 324 325 325 326 325 325 327 327 324 323 325 324 326 324 325 325 325 325 326
287 292 292 293 291 289 288 289 292 294 290 288 287 289 290 291 290 289 285 286 284 282 281 282 282 280 283 282 284 283 285 286 289 291 292 291 293 293 292 292 293 293 292 292 293 294 295 295 295 296 296 297 301 306 310 311 314 316 318 319 319 320 322 322 322 322 323 324 323 324 324 324 324 324 321 319 319 322 321 324 321 322 323 323 323 324
287 291 294 291 289 289 288 287 291 294 292 291 290 289 288 287 285 284 284 284 283 279 281 283 282 283 280 285 287 286 287 287 288 289 289 289 290 291 291 292 292 291 290 290 291 291 292 292 292 293 294 296 297 301 306 309 312 314 316 318 318 320 322 321 322 321 322 323 324 324 324 324 324 323 321 316 317 319 318 321 319 317 320 320 321 320
286 288 290 288 289 287 290 288 289 291 291 292 288 285 287 285 285 284 283 284 280 279 280 279 281 283 280 282 284 288 285 283 289 291 293 293 292 293 292 290 289 288 288 288 288 290 291 291 291 292 294 295 296 298 302 306 309 312 314 316 317 318 319 320 321 321 322 323 323 324 324 324 324 324 322 320 319 318 317 320 316 316 317 317 317 317
283 285 285 287 290 291 288 288 286 288 289 290 288 288 285 280 281 278 280 277 278 278 280 278 278 280 282 287 285 285 286 286 284 287 290 291 291 291 291 289 289 289 289 289 290 291 292 292 292 292 293 294 296 298 301 304 307 310 312 314 315 316 317 319 320 320 321 321 322 323 323 324 324 323 322 322 322 320 320 320 318 314 315 313 312 312
281 282 284 286 287 290 291 286 282 283 286 288 286 285 284 278 278 276 277 273 272 277 278 279 280 280 283 284 287 292 295 294 292 289 288 289 290 291 292 291 289 290 289 290 291 292 293 293 293 293 293 295 296 297 299 302 304 306 309 311 313 315 316 317 318 319 320 321 322 323 323 324 323 322 322 322 323 321 321 320 318 316 316 313 315 313
279 277 284 285 283 287 291 290 289 286 287 289 291 289 287 284 278 276 276 276 276 278 277 278 277 278 278 286 285 287 289 289 287 287 287 287 288 288 288 288 288 289 290 291 291 293 293 294 292 293 293 294 294 295 296 298 301 302 306 308 310 312 312 314 316 318 319 320 320 321 322 323 323 322 321 322 322 321 320 320 319 318 317 315 315 315
284 281 282 286 286 288 290 287 286 287 287 286 287 287 283 284 282 276 271 275 272 275 273 275 280 280 284 285 288 287 286 286 287 287 287 288 287 287 288 290 291 291 292 292 292 293 292 291 290 290 290 292 293 294 293 294 297 299 303 305 307 311 311 311 312 316 319 319 320 320 320 321 321 320 321 320 319 319 320 319 319 317 317 317 316 313
280 279 283 286 285 289 289 287 289 290 282 286 286 284 285 286 282 276 274 276 274 273 276 274 278 282 282 287 291 292 286 289 287 286 286 287 287 286 287 289 290 291 292 293 293 292 291 289 289 288 289 289 289 290 292 295 295 298 300 301 303 305 306 308 311 315 317 318 318 318 320 320 320 319 319 319 318 317 318 318 318 317 316 315 312 308
283 279 283 283 283 285 283 288 289 289 288 286 282 287 286 287 284 281 276 270 272 271 274 273 279 280 280 281 284 282 287 291 291 290 287 286 285 285 289 290 291 291 291 291 291 290 289 289 289 289 289 290 292 291 289 290 293 295 295 298 301 302 304 305 308 311 314 316 316 317 317 318 319 319 319 318 317 316 315 315 315 313 310 309 308 306
286 278 283 283 284 287 286 288 287 288 287 289 285 289 288 280 279 279 275 271 269 270 270 270 274 276 280 284 284 285 284 286 288 289 286 288 288 288 289 290 289 288 288 290 291 292 292 292 292 291 291 292 291 291 292 293 296 295 295 293 297 300 302 305 306 308 311 314 315 316 316 317 317 317 317 317 316 314 314 313 312 310 310 306 304 303
283 278 278 283 284 285 286 286 282 284 287 287 287 286 285 283 280 276 280 274 276 271 268 272 269 280 281 282 283 288 291 291 291 290 290 289 288 287 288 289 289 289 289 290 291 291 292 292 292 292 292 292 293 293 293 293 297 296 296 296 297 299 301 303 304 306 307 310 312 313 314 315 316 315 316 315 314 313 313 312 310 308 305 304 302 303
284 283 275 282 283 284 281 285 284 285 283 282 284 283 284 282 283 281 278 276 277 266 265 268 271 276 280 283 287 289 290 292 292 293 290 288 287 287 288 289 289 288 289 290 290 290 291 291 291 291 290 290 288 289 293 295 298 299 299 299 299 300 301 302 304 305 306 308 310 310 312 312 313 313 315 314 314 313 312 311 308 307 305 301 301 301
282 282 279 280 281 281 279 282 283 286 288 285 286 285 287 282 278 280 278 277 270 274 271 266 275 279 282 282 288 289 290 290 291 288 287 286 286 287 287 287 287 288 288 288 289 289 290 289 288 288 289 288 286 291 294 296 298 300 300 301 301 302 302 303 304 305 306 307 309 309 310 311 311 312 312 311 310 310 308 306 304 302 300 300 299 300
283 282 282 275 278 281 285 284 282 282 284 285 285 284 285 283 280 276 275 274 274 275 271 269 268 279 287 285 286 287 289 289 284 282 286 286 286 287 287 287 287 287 287 287 288 289 289 289 288 288 288 288 288 290 293 294 298 300 301 301 302 302 303 303 304 305 306 306 307 307 307 307 307 307 307 307 305 304 302 301 299 299 300 297 295 295
290 284 281 280 281 281 281 282 283 283 285 285 284 281 282 283 282 280 275 275 279 273 274 273 273 281 286 284 285 285 284 283 282 283 286 286 287 287 287 287 287 287 289 289 287 286 287 287 287 288 290 291 290 290 293 296 298 299 300 301 302 301 302 303 304 304 304 305 304 303 302 302 301 303 303 303 301 300 298 298 297 297 297 295 294 293
286 283 284 275 274 276 277 282 282 283 284 280 281 282 283 283 282 279 276 276 276 277 277 275 276 280 286 281 282 283 283 285 286 284 284 287 288 287 287 287 286 287 288 288 288 288 287 287 289 291 291 291 290 288 288 293 298 298 300 299 300 301 301 301 301 301 300 299 299 298 298 298 299 300 299 298 297 296 295 294 294 293 293 292 292 292
284 285 284 278 275 273 271 273 277 280 282 281 280 283 283 286 283 281 279 276 277 280 280 277 281 283 283 283 285 283 283 286 288 286 283 285 286 287 287 287 286 286 289 288 287 287 289 289 288 287 288 289 288 289 290 293 295 297 297 298 297 298 297 297 297 298 298 297 297 297 296 296 297 297 296 295 294 293 293 292 292 292 292 292 292 291
285 285 286 285 283 280 282 282 284 286 283 282 283 285 284 285 285 285 279 275 280 279 278 283 285 282 282 284 283 287 284 285 289 286 286 286 285 285 285 285 286 288 289 289 289 288 286 287 288 289 288 289 288 288 288 289 293 295 296 296 295 296 297 296 297 296 297 296 296 296 295 294 294 295 293 292 292 292 292 292 291 291 292 292 291 291
285 284 286 286 286 284 281 281 284 288 285 286 284 283 284 283 283 285 283 282 283 278 278 284 285 284 286 282 280 281 282 282 283 284 284 284 285 286 286 286 288 287 287 287 287 288 289 289 288 288 288 288 288 288 287 287 291 295 296 296 295 295 295 296 296 295 295 295 295 294 293 292 292 292 293 292 292 292 292 291 291 291 290 290 290 289
284 285 286 284 283 280 281 284 286 287 287 286 286 284 282 284 283 284 284 287 284 284 282 284 285 284 286 286 286 283 284 286 287 286 284 284 284 284 285 288 288 289 290 288 290 289 289 290 289 289 288 288 288 288 288 287 288 289 293 295 295 294 294 294 295 295 294 293 293 292 291 291 291 291 290 290 290 290 290 290 289 289 288 288 288 287
288 283 284 285 281 281 280 282 284 286 284 285 284 284 285 283 284 286 287 288 286 286 288 284 283 284 287 286 287 290 287 287 284 282 283 284 285 286 286 287 288 289 290 290 290 290 290 291 290 289 288 288 288 288 288 288 288 290 293 294 293 293 293 293 293 294 294 293 292 291 291 290 290 290 290 290 290 289 289 288 288 287 287 286 286 285
288 280 286 281 277 278 280 281 282 285 285 284 283 283 284 284 285 286 287 287 285 286 287 285 283 285 287 285 286 287 285 284 284 284 285 286 285 285 286 288 289 289 290 290 291 291 291 291 290 289 289 289 289 289 289 289 289 289 291 294 293 293 293 293 292 292 292 293 291 291 290 290 289 290 289 290 289 288 288 287 287 286 285 285 284 284
286 278 280 283 279 276 279 280 280 282 283 284 283 283 283 283 282 284 284 285 284 285 286 284 284 285 284 288 287 287 285 286 288 288 287 288 287 285 286 288 288 289 290 291 291 291 291 291 290 290 290 290 289 288 288 289 288 288 290 293 293 293 292 293 293 293 292 291 291 290 290 290 290 289 289 288 288 287 287 286 286 285 285 284 283 283
282 281 280 281 280 276 278 279 282 283 282 279 282 284 285 285 286 286 287 287 288 289 285 283 285 286 286 288 288 286 287 288 287 287 289 288 287 286 287 289 290 290 291 292 292 291 290 290 290 291 291 289 289 289 289 289 289 289 290 291 293 293 292 293 293 293 292 291 290 290 290 290 289 289 288 288 287 287 286 285 285 284 284 283 283 283
285 285 282 285 281 276 277 280 281 280 275 278 290 290 287 285 285 284 285 287 288 289 289 290 290 285 285 286 289 288 288 290 292 293 292 293 291 289 288 288 290 291 291 291 290 290 290 289 290 290 290 290 289 289 289 289 290 290 289 290 291 292 292 293 293 293 293 291 290 290 289 289 288 288 288 287 286 286 285 285 285 284 283 282 282 282
286 285 281 282 278 275 278 280 280 276 277 289 289 289 290 290 289 288 289 289 289 289 289 289 289 289 288 289 290 290 290 291 287 286 289 289 290 292 293 292 290 290 291 291 289 288 289 289 289 288 288 288 289 288 287 288 288 288 288 289 290 291 292 293 293 292 292 291 290 289 289 288 288 287 287 286 285 285 285 284 283 282 282 282 282 281
286 285 281 277 278 277 277 281 274 276 286 285 282 285 288 291 290 288 286 288 287 287 289 289 291 292 291 288 287 285 287 286 283 285 287 287 287 291 290 290 291 290 289 290 289 289 289 287 288 289 290 288 287 287 288 288 288 288 288 288 289 290 291 292 292 292 291 290 289 289 288 288 288 287 286 285 284 284 284 283 282 281 281 281 281 280
289 288 286 277 275 278 277 280 279 281 282 286 285 283 284 284 283 285 282 286 288 289 289 290 291 291 291 290 284 284 284 286 287 292 287 287 289 288 290 292 292 289 289 289 288 289 288 288 288 288 287 286 288 288 288 287 287 288 287 287 288 289 290 290 291 291 291 290 289 289 288 288 287 286 285 284 284 283 283 282 280 280 280 280 280 279
290 287 286 283 274 275 276 269 271 275 276 282 287 285 288 286 288 289 285 286 290 290 291 290 290 290 290 287 284 284 285 286 287 290 292 288 290 290 288 288 287 288 288 289 288 287 286 285 285 286 288 287 287 288 287 287 287 287 287 286 286 287 288 289 290 291 290 290 289 288 288 287 287 286 285 284 284 283 282 281 280 280 280 280 279 278
283 283 286 286 277 272 273 275 275 274 279 283 282 285 288 288 289 287 283 282 290 290 289 290 290 290 289 286 284 286 286 284 287 291 294 291 290 288 290 289 289 289 288 287 287 287 286 286 286 286 286 286 287 286 286 286 286 287 287 286 286 286 287 288 289 289 289 289 288 288 287 287 286 286 285 284 284 283 281 280 279 279 279 279 279 278
283 280 282 275 270 278 279 275 276 275 281 281 281 282 286 288 290 287 272 279 288 288 290 289 290 290 288 285 286 287 287 285 287 292 293 289 289 290 290 291 289 287 286 285 284 285 285 285 286 286 286 286 287 285 286 286 287 286 286 286 285 286 286 287 287 287 288 287 287 286 286 286 285 285 284 284 283 282 281 279 278 278 278 278 278 277
278 275 278 280 279 276 281 271 268 276 282 280 282 285 286 291 289 280 277 285 285 288 289 290 290 291 289 286 287 287 289 293 294 289 284 285 288 288 285 285 286 286 286 284 285 284 284 284 285 286 286 285 285 284 285 286 286 286 286 285 285 285 287 287 286 285 285 285 284 284 285 284 284 284 283 283 281 280 278 278 278 277 277 277 276 276
274 278 273 275 275 277 278 275 277 277 283 281 281 286 288 288 275 280 285 283 285 284 287 289 290 290 289 288 287 289 291 291 291 286 283 285 287 284 284 283 284 283 282 282 282 282 284 283 284 285 284 283 283 284 285 286 286 286 285 284 285 286 286 285 284 284 284 283 283 282 282 281 281 282 281 279 279 278 277 276 277 277 277 277 276 275
282 281 278 280 276 271 269 276 269 273 283 286 285 284 284 285 285 284 282 283 284 285 285 285 286 284 287 286 288 290 290 287 287 289 288 284 284 286 286 284 284 284 285 284 285 283 283 284 284 284 284 282 282 283 284 285 285 284 284 285 286 284 284 283 283 283 283 282 281 281 280 280 279 280 279 278 278 278 277 276 276 276 276 276 275 275
286 282 278 281 283 280 278 276 279 284 285 288 289 287 287 286 283 286 287 286 284 284 285 286 283 285 287 288 288 287 286 285 285 285 284 284 284 284 284 283 282 282 282 281 282 282 280 282 281 282 281 280 281 281 283 285 285 284 284 285 282 282 281 281 281 281 280 280 280 279 279 278 278 279 278 278 278 277 276 276 276 276 276 276 275 275
286 286 287 282 286 284 282 285 283 281 286 289 292 290 292 289 284 284 286 288 287 284 282 287 287 284 286 287 287 288 286 285 287 285 286 287 285 284 284 285 284 283 282 282 282 280 280 283 282 280 280 280 279 281 282 282 284 282 283 281 279 280 280 279 279 279 279 278 278 278 277 277 277 277 277 277 277 277 276 275 275 275 275 275 275 275
286 287 279 284 282 282 281 281 281 278 281 286 283 281 291 291 284 283 285 288 286 287 286 289 286 287 286 284 286 283 286 286 286 285 284 284 284 282 280 280 279 278 278 278 279 278 278 278 277 279 280 280 278 279 279 279 280 283 281 278 279 279 279 278 278 278 277 276 276 276 275 276 275 275 276 276 277 277 277 276 276 276 275 275 275 275
283 282 284 283 280 285 283 287 282 283 282 285 288 285 286 289 285 282 283 286 285 284 286 285 287 287 286 285 287 287 286 284 285 286 283 282 282 281 280 280 278 277 278 279 278 275 276 276 278 278 277 279 278 276 276 277 277 278 276 277 278 278 278 278 278 277 276 276 275 274 275 276 275 275 274 274 275 275 276 276 276 276 275 275 275 275
284 284 287 277 283 285 287 286 284 284 283 285 286 286 287 287 283 281 281 281 282 282 284 282 282 283 284 286 286 286 285 283 285 285 283 282 282 281 279 278 277 277 275 274 273 273 274 275 277 276 275 277 275 274 275 276 276 274 273 275 276 276 277 277 277 277 275 275 274 274 274 275 274 274 274 274 274 275 274 275 275 276 275 275 275 275
284 286 285 283 283 285 284 280 281 284 286 285 285 283 284 287 288 283 281 281 281 284 283 280 279 282 285 286 284 283 283 282 281 281 281 280 280 279 278 277 276 276 275 275 273 273 276 274 274 274 273 274 274 273 274 274 273 271 273 275 275 276 277 277 275 275 273 273 273 273 273 274 274 274 274 274 273 274 275 275 275 276 276 275 276 277
286 285 285 284 283 282 285 285 285 284 281 285 286 288 287 285 286 287 282 282 282 282 282 283 278 277 278 279 282 283 284 281 279 279 279 279 279 277 276 276 274 273 272 272 271 271 271 272 273 273 274 274 272 272 272 272 271 271 272 273 273 275 276 275 274 273 272 272 273 272 273 273 273 273 273 273 273 273 272 274 277 276 275 275 277 279
288 287 286 285 285 285 287 285 290 291 290 289 291 289 288 285 285 287 285 285 284 282 283 283 281 280 281 279 277 281 280 281 279 278 278 277 277 277 276 276 276 275 274 272 273 272 272 271 270 271 272 272 270 270 270 270 269 270 271 272 273 274 274 274 274 273 272 272 272 273 273 273 273 272 272 272 273 272 273 272 272 279 279 278 277 278
Wind_Speed
3 10 10 10 8 10 11 10 5 5 7 6 4 4 2 2 3 3 4 1 1 0 6 7 7 8 10 9 8 2 1 3 5 7 7 7 8 8 8 9 10 10 15 8 4 7 8 9 9 9 8 9 9 9 9 10 11 12 13 11 12 11 10 10 10 9 10 10 9 8 11 9 7 7 7 7 7 7 7 7 6 6 6 6 7 7
3 8 9 7 9 11 8 5 7 5 7 9 6 5 3 3 3 3 1 2 3 3 3 2 2 10 13 13 10 3 1 8 9 8 8 10 8 8 9 11 11 13 6 8 8 7 6 8 8 8 9 9 11 12 12 13 14 14 12 13 13 9 10 11 11 10 9 9 8 7 7 6 7 7 7 6 6 8 8 8 7 7 6 7 7 8
8 9 6 6 7 7 5 6 8 9 6 5 6 4 3 3 4 6 3 2 1 1 8 1 3 8 11 13 10 5 9 8 7 9 10 8 7 9 9 11 11 6 11 9 10 7 9 10 10 9 9 10 14 14 15 14 12 12 12 12 13 11 11 11 11 11 11 10 9 9 7 8 6 7 8 9 9 9 9 9 8 7 7 8 7 7
7 6 7 6 9 11 5 7 7 6 5 6 5 5 6 2 3 5 2 1 0 2 2 0 4 9 10 10 12 9 9 7 7 7 11 7 9 11 13 10 8 10 12 14 13 12 10 10 9 8 10 12 12 12 11 11 14 12 13 13 13 12 11 11 12 12 11 11 10 10 9 9 9 7 7 8 7 7 8 9 8 8 8 9 9 8
3 4 6 7 7 10 9 5 6 6 4 1 5 4 5 2 1 2 2 4 3 1 1 3 6 7 7 11 10 3 2 5 8 5 7 7 9 8 4 5 8 12 12 13 11 9 8 9 12 14 14 10 11 12 13 14 14 12 17 15 14 12 13 12 12 13 11 8 8 7 3 3 3 1 5 6 7 8 8 7 8 8 8 8 9 9
1 3 7 9 7 8 9 8 8 8 6 3 3 6 6 5 4 2 2 5 6 3 3 0 3 7 4 9 11 7 4 4 3 3 9 10 8 6 9 13 11 10 10 12 13 10 9 11 9 8 10 11 12 13 14 14 15 15 13 13 13 12 12 12 13 13 11 11 11 9 9 8 8 9 7 10 10 7 7 8 5 8 9 9 8 7
4 2 10 9 8 6 8 7 5 8 5 5 7 9 8 7 5 3 2 2 1 2 0 1 4 7 6 7 5 5 4 10 7 4 10 9 8 7 10 11 11 12 12 10 11 8 7 10 9 11 12 14 13 15 12 11 12 12 12 12 14 13 12 12 12 13 12 12 11 13 14 12 12 11 9 8 7 8 8 7 8 8 8 9 10 8
4 6 5 7 8 10 6 7 7 12 9 7 3 13 7 5 5 4 1 2 4 2 1 2 2 3 8 9 5 1 4 8 9 7 9 10 10 11 11 12 11 11 11 11 12 11 11 10 11 14 14 12 16 12 8 10 9 12 14 14 14 12 11 11 11 13 13 13 13 13 13 12 12 12 12 10 9 8 8 8 9 8 7 7 6 7
12 7 10 11 8 9 13 8 9 12 8 4 4 11 9 9 7 3 3 3 2 2 6 2 0 2 7 6 4 1 8 10 11 9 8 9 10 10 11 12 13 13 11 8 10 11 11 11 11 10 8 9 8 7 10 11 11 11 11 11 10 11 11 10 12 12 13 13 13 13 12 12 11 11 10 6 7 8 8 10 7 7 7 7 7 6
3 12 16 16 12 11 4 5 11 11 7 1 6 5 4 4 4 3 2 2 2 1 7 2 1 3 13 5 3 1 2 8 7 9 11 11 11 10 10 10 11 8 5 5 9 9 8 8 8 8 8 7 10 8 8 7 7 9 9 11 12 13 11 11 12 12 13 14 12 12 13 14 11 9 6 6 7 8 7 9 8 7 7 6 6 6
1 4 2 4 7 3 5 1 8 9 2 7 6 7 4 4 3 4 3 2 2 5 3 2 0 2 9 7 9 6 7 6 7 7 7 7 9 11 11 11 8 6 5 6 6 7 8 6 7 5 9 10 6 6 7 8 9 9 10 12 13 15 11 11 12 13 15 13 13 13 13 14 14 12 10 7 7 7 7 8 8 8 7 6 7 6
2 2 5 2 2 3 5 4 4 4 10 10 3 5 6 3 1 3 1 2 3 6 1 5 6 10 10 3 4 7 2 4 7 9 11 10 11 11 8 6 6 5 6 6 6 8 7 8 7 6 9 8 7 6 8 8 8 9 10 11 13 12 12 11 12 12 13 12 13 13 13 13 13 12 11 12 11 10 11 9 8 7 6 6 5 5
3 4 2 2 3 10 4 9 2 2 4 4 6 7 9 1 2 4 1 4 7 5 2 4 2 1 19 10 5 3 8 6 6 9 10 10 10 10 8 5 5 5 5 6 7 7 7 7 7 6 8 6 7 9 9 9 9 8 8 10 12 13 11 11 11 13 13 12 13 13 12 12 11 11 12 12 12 11 10 9 9 8 7 5 5 5
1 1 0 3 3 5 11 12 4 3 5 7 7 9 8 5 6 7 6 0 4 4 3 1 1 8 4 4 11 15 16 14 11 9 10 9 11 11 10 5 6 8 6 7 7 8 8 8 7 7 7 7 7 8 8 8 8 7 8 8 11 12 9 9 10 11 12 13 12 12 12 11 10 11 11 11 11 10 10 9 10 11 9 9 10 9
9 2 9 10 5 5 10 10 13 7 17 15 6 9 8 9 6 9 6 12 9 7 1 3 1 8 3 2 0 7 7 8 7 6 6 8 9 9 9 9 9 11 10 7 8 9 8 8 7 7 6 6 6 6 6 6 6 5 8 8 10 10 8 9 11 10 12 11 11 11 11 11 9 10 10 10 10 10 10 9 9 9 8 9 8 10
13 2 3 2 2 8 12 3 5 6 6 1 2 3 2 9 4 5 3 3 2 2 1 3 8 3 5 4 9 6 6 7 7 8 6 11 6 6 9 10 11 9 9 7 7 8 7 8 6 6 6 6 5 6 5 7 6 6 7 6 8 9 7 8 8 9 10 11 9 10 11 11 10 9 9 8 7 8 10 10 10 10 10 9 9 7
3 3 2 1 3 12 8 5 2 8 10 6 5 10 5 2 8 5 1 1 2 2 9 2 8 7 7 7 10 10 2 8 5 7 6 7 7 4 9 10 10 9 7 7 7 7 7 5 5 6 5 4 4 4 6 6 6 7 7 7 7 7 5 7 9 10 10 9 9 10 10 10 9 10 11 10 10 10 10 10 9 9 9 8 8 8
12 4 2 3 5 2 1 4 6 2 3 8 8 10 3 2 5 4 3 2 1 4 6 2 9 6 1 11 4 4 6 11 10 7 5 7 5 5 9 9 8 7 7 6 7 6 7 6 5 5 4 4 4 4 3 4 3 3 4 6 8 7 8 7 7 8 8 9 9 9 10 10 10 10 10 9 10 9 9 8 7 6 7 8 8 9
8 5 0 1 1 1 0 5 3 1 1 7 5 3 10 5 6 2 4 2 3 3 4 4 3 7 8 10 3 1 1 5 9 9 3 7 4 5 8 8 5 5 6 6 7 6 6 6 6 5 5 3 3 3 3 2 2 2 3 3 4 7 7 6 6 6 6 7 7 8 9 10 9 8 8 8 9 9 9 9 8 9 9 8 8 8
4 8 2 2 3 2 2 5 12 7 1 1 2 2 0 2 0 4 7 2 5 5 1 7 3 10 6 7 8 9 9 10 11 11 11 8 3 5 7 7 8 8 6 6 6 6 5 5 5 4 3 3 2 2 1 2 1 2 2 3 4 4 4 5 7 7 7 7 6 7 6 7 8 8 9 9 9 9 9 10 10 9 8 10 9 9
3 2 6 1 1 3 5 6 12 12 12 4 4 7 1 0 2 5 1 4 4 4 5 2 6 6 6 7 11 11 12 13 12 14 9 8 5 5 5 7 8 7 8 7 6 6 5 4 4 4 3 3 2 1 1 1 2 2 2 3 3 4 5 6 7 7 7 7 7 7 8 8 7 8 8 9 10 11 10 10 10 10 10 9 9 10
5 1 11 5 4 7 6 2 4 10 10 7 11 14 15 11 6 9 8 3 2 2 4 2 11 4 4 4 9 9 10 9 11 3 4 5 6 7 7 6 6 7 7 7 7 5 5 4 4 3 3 2 2 2 2 2 3 3 4 4 4 4 5 5 6 5 5 5 5 7 7 7 7 8 7 8 8 8 8 8 8 9 9 10 10 11
6 3 9 6 4 5 1 0 1 1 1 5 5 6 6 4 5 3 7 4 2 2 4 2 1 10 7 8 8 7 7 9 4 5 6 5 7 8 8 7 6 6 7 7 6 5 5 4 5 4 3 4 4 3 2 2 3 4 4 4 4 4 5 5 5 4 4 4 5 5 4 4 5 5 7 8 7 7 7 7 6 7 10 9 8 5
6 6 8 3 2 4 3 1 1 1 1 1 4 2 5 7 6 6 3 6 8 2 1 1 3 6 1 1 4 3 4 4 4 4 7 4 6 6 7 7 6 5 5 5 4 3 4 4 4 3 4 5 5 4 6 5 3 4 3 4 4 5 5 4 5 4 5 4 4 4 3 4 3 5 5 6 5 7 6 7 7 6 7 8 8 9
6 3 9 7 4 2 4 3 2 1 1 3 4 3 3 3 4 2 4 2 2 9 8 7 12 6 3 3 1 3 5 7 8 5 5 6 6 6 7 6 5 5 4 4 4 3 3 3 4 6 6 6 5 4 4 5 5 4 4 3 4 4 4 4 4 4 3 4 4 4 4 4 4 5 5 5 5 6 6 7 7 6 9 9 7 8
5 7 11 11 13 12 7 9 16 17 13 2 1 8 9 15 12 8 8 3 6 8 13 8 14 2 4 1 1 3 2 6 9 1 3 5 6 8 6 7 7 4 4 3 3 3 5 5 4 5 6 6 6 6 5 5 4 4 3 4 3 3 3 2 3 3 4 4 4 4 4 4 4 5 5 6 6 7 7 7 7 9 7 8 11 8
3 1 7 11 16 17 18 5 7 14 7 10 12 15 12 7 11 7 5 4 15 4 7 17 15 2 4 3 2 5 4 7 10 3 2 2 5 6 5 7 8 5 5 5 4 5 4 5 8 8 7 7 5 5 5 4 4 4 3 3 2 3 3 4 4 3 4 4 4 5 5 5 4 6 6 6 7 7 7 8 8 7 10 10 10 11
4 5 10 11 12 3 2 2 5 17 17 16 11 11 10 10 11 13 13 19 8 11 12 15 9 13 18 4 5 6 6 5 7 5 5 6 4 2 4 7 8 6 6 4 5 5 6 7 6 7 8 7 7 6 5 5 5 4 4 5 4 3 3 4 4 3 4 4 5 5 5 5 5 6 7 7 7 7 7 8 8 8 7 8 9 9
7 11 13 7 6 5 3 8 12 10 11 10 15 13 15 18 15 18 20 19 12 14 21 8 11 18 14 10 9 8 5 4 4 2 4 2 2 3 7 6 4 5 6 4 6 4 5 7 7 7 7 8 6 7 6 5 5 4 4 4 4 4 4 3 4 4 3 3 4 5 4 4 4 4 4 6 6 6 7 7 7 7 8 8 8 7
7 7 5 8 3 3 6 1 4 13 5 7 10 13 15 13 20 24 25 21 14 15 20 4 9 14 12 9 11 10 8 7 3 0 2 2 4 6 5 5 6 7 7 6 6 6 6 8 7 8 7 7 7 8 7 7 7 8 8 7 5 5 5 5 4 4 6 5 4 4 5 5 5 7 6 7 7 7 7 8 9 9 9 9 8 9
10 3 8 4 4 1 3 4 3 8 9 6 5 8 11 16 20 23 21 13 9 14 19 8 7 18 8 8 8 7 1 1 2 4 5 6 6 7 6 7 8 8 7 7 7 8 7 7 8 7 7 8 9 9 8 8 7 7 8 7 7 7 6 6 5 4 5 7 5 5 6 6 6 7 8 8 7 8 8 9 8 9 9 9 9 10
4 2 1 6 6 1 1 4 3 4 4 7 8 11 15 18 18 17 14 9 9 21 19 9 13 22 3 11 4 1 2 5 7 7 5 7 8 7 8 9 9 9 9 10 9 8 9 10 9 8 10 9 6 6 7 7 7 7 9 7 7 7 6 7 7 7 6 4 6 7 7 7 7 6 7 7 8 8 8 8 8 9 10 10 10 9
4 5 6 6 8 3 1 2 8 6 6 1 9 20 25 18 13 9 13 15 20 21 12 11 25 7 6 8 7 6 7 9 7 7 9 8 8 9 11 11 11 10 10 10 11 9 7 8 9 10 9 6 7 8 9 9 8 10 9 9 8 7 7 7 7 7 7 7 7 7 7 7 8 7 7 7 8 7 7 8 8 9 9 9 9 9
10 10 6 7 9 4 2 6 3 6 8 12 20 21 18 18 20 20 20 24 25 17 19 19 14 2 5 7 12 12 11 12 14 14 10 9 8 9 10 9 11 12 11 10 9 7 7 5 7 7 7 6 6 8 8 9 10 8 6 7 6 9 8 9 8 8 9 8 8 8 7 7 7 8 8 7 8 8 7 7 8 8 7 8 8 9
14 11 6 3 7 4 4 4 7 11 11 21 3 11 20 25 26 29 30 23 19 16 16 15 16 13 10 11 11 11 11 10 3 6 9 10 10 10 12 12 13 13 13 11 7 7 8 8 4 3 3 6 8 6 5 6 5 4 6 7 8 8 9 8 8 7 7 8 8 7 7 7 7 8 7 7 7 7 7 7 7 8 7 8 9 9
12 11 6 4 6 4 4 7 6 15 14 2 1 6 14 22 23 15 15 15 11 12 17 21 28 24 12 7 3 0 3 3 5 9 11 10 7 11 11 12 13 12 11 9 8 9 6 4 4 4 5 4 4 5 6 6 5 6 5 5 7 7 7 7 8 9 8 8 8 8 8 8 7 7 6 7 6 7 8 7 8 9 7 7 6 5
22 12 9 4 1 10 7 12 12 7 10 12 9 8 13 12 10 15 16 20 17 17 19 23 22 15 14 7 6 2 2 2 6 14 6 8 12 11 14 15 12 7 8 9 7 8 3 3 3 4 3 4 6 6 7 5 7 7 6 7 7 8 8 8 10 10 9 8 8 9 9 9 9 9 8 7 8 8 8 8 8 7 6 8 7 8
10 17 10 13 3 5 8 2 2 7 10 21 12 4 6 4 8 8 6 18 12 20 19 17 19 17 15 5 7 4 3 1 11 16 10 10 14 11 9 9 5 7 8 9 3 2 2 3 3 3 4 5 5 4 4 6 7 6 6 6 6 7 8 9 12 8 7 7 7 8 8 9 9 9 9 9 10 9 7 6 5 7 7 10 10 9
2 2 9 15 7 5 5 10 10 13 21 9 8 9 10 13 15 10 6 15 20 16 13 18 20 17 12 8 9 8 6 6 15 16 13 12 8 6 9 10 11 11 8 5 5 6 5 5 4 3 2 2 4 3 5 6 7 7 7 6 7 7 9 11 6 5 8 8 7 7 8 9 8 9 10 11 10 10 11 10 9 7 6 6 7 8
7 7 7 5 5 10 12 9 12 6 13 5 7 6 13 14 17 12 4 17 5 18 18 17 20 17 8 12 14 13 14 13 15 17 10 5 7 10 10 11 9 7 4 3 4 5 3 1 2 2 3 5 5 4 7 7 7 7 7 6 6 8 9 7 7 7 5 5 7 7 8 7 8 9 10 11 9 9 9 8 8 9 8 7 6 8
6 0 5 16 12 8 10 6 3 9 5 4 7 10 14 17 16 10 19 13 7 12 15 19 18 17 14 15 15 15 17 17 13 3 4 2 1 5 4 3 3 2 3 3 2 1 1 3 4 5 5 4 5 6 7 7 8 7 7 7 7 11 10 7 6 6 7 7 8 8 8 6 8 9 7 7 8 7 6 6 8 8 8 8 7 7
4 5 1 3 6 10 10 7 10 8 7 9 0 16 14 11 8 22 5 2 6 5 10 15 19 18 15 16 11 10 10 12 11 1 2 3 6 3 3 1 1 1 1 0 0 0 1 2 2 1 1 2 5 6 7 7 8 7 7 7 10 10 4 5 6 6 7 8 7 7 7 8 7 7 8 8 9 9 7 5 7 8 8 7 8 10
17 13 13 13 4 5 3 9 0 12 7 15 15 4 4 10 9 4 3 0 1 6 11 7 6 4 10 9 13 15 13 6 7 10 7 5 4 6 4 3 4 4 4 2 2 1 2 3 2 1 1 1 3 5 5 6 6 6 5 9 8 3 5 5 5 6 6 6 7 7 8 8 9 9 8 9 10 12 11 9 10 9 9 10 10 11
12 12 8 9 12 15 13 11 15 9 8 18 22 14 15 10 3 7 8 4 0 5 8 8 5 9 10 11 13 11 8 6 5 6 5 5 6 5 4 3 2 2 2 1 0 1 2 3 2 1 1 1 3 4 5 7 6 6 7 9 3 5 5 6 5 5 6 6 6 6 6 7 7 7 7 9 10 10 11 11 10 10 10 10 11 11
12 18 15 18 14 12 15 18 2 2 12 12 15 8 14 12 5 6 5 10 8 3 3 6 10 7 9 11 11 13 8 9 9 5 6 8 6 7 7 7 5 4 3 4 2 0 1 2 2 3 2 1 3 3 4 4 6 5 7 3 5 5 7 6 6 6 6 6 6 6 5 5 6 7 7 8 10 11 10 10 11 11 8 10 10 10
5 7 3 5 6 2 5 3 1 1 3 8 3 2 12 15 4 2 4 9 4 7 10 10 9 11 10 6 8 3 9 9 10 6 7 6 4 2 2 1 0 2 2 3 2 2 2 3 3 3 2 0 0 1 1 3 3 5 3 2 5 6 7 7 7 6 6 5 6 6 6 7 5 5 5 7 7 8 9 11 11 11 10 10 10 10
4 4 2 5 2 10 12 11 6 6 2 8 7 1 3 1 5 4 3 3 5 6 8 1 11 12 14 11 10 11 10 7 9 9 6 3 4 4 2 1 1 1 2 2 1 3 3 3 3 2 1 0 0 0 1 2 3 3 2 4 4 5 7 7 7 6 5 6 5 4 6 7 6 5 4 4 4 4 5 6 7 7 9 9 10 10
5 5 7 3 9 15 19 9 8 4 3 5 7 3 3 4 2 4 3 3 3 3 4 3 5 6 7 9 11 9 8 8 10 9 6 4 1 0 1 2 3 3 2 2 2 3 3 3 3 1 1 1 2 1 1 2 3 2 2 3 3 4 7 7 7 7 6 6 5 5 5 6 7 7 6 6 6 7 6 6 7 9 11 13 13 12
4 8 9 8 8 7 3 2 1 5 0 1 3 4 5 8 9 7 6 5 4 7 6 3 2 7 10 8 7 6 7 6 4 3 3 2 2 2 3 4 4 4 4 4 2 2 3 4 3 2 2 1 1 0 1 1 1 1 3 4 4 5 6 7 5 5 5 5 5 5 5 6 7 7 7 7 6 6 7 9 9 9 7 5 4 6
11 15 9 8 8 7 16 13 12 8 4 6 9 16 13 9 8 8 4 3 4 6 7 7 3 3 2 2 6 6 6 5 5 5 4 3 3 3 4 4 4 5 4 3 3 4 3 3 2 2 0 1 1 1 0 1 1 1 1 2 4 4 5 5 6 5 5 5 5 5 5 5 5 6 6 7 7 6 4 4 6 6 5 6 5 5
17 17 13 15 16 18 10 9 13 11 7 9 17 15 10 7 7 8 10 10 6 4 7 10 8 4 3 2 0 5 5 7 7 5 6 4 3 2 3 6 7 5 5 4 5 3 3 2 2 2 1 0 1 1 1 1 1 1 1 1 1 3 4 5 5 5 5 5 5 6 6 5 5 5 5 5 5 5 6 5 3 8 9 6 5 4
Wind_Direction
142 159 182 183 175 182 188 189 155 156 153 136 114 113 134 118 304 284 286 250 162 47 248 236 241 255 266 257 269 250 122 239 260 259 245 247 237 233 232 232 237 235 237 248 232 219 214 211 207 206 198 203 201 203 201 207 210 208 208 198 208 204 198 201 201 196 195 198 200 206 207 207 197 198 198 205 206 208 210 201 199 196 198 193 194 196
159 176 198 177 172 180 180 144 129 111 131 148 150 152 134 115 229 233 250 343 312 167 290 14 274 260 260 269 260 204 286 259 230 242 253 245 237 239 233 240 235 239 275 267 253 236 225 219 209 201 202 196 201 211 204 208 210 211 207 207 213 196 198 204 201 198 203 204 198 196 204 194 196 191 192 203 205 210 207 202 196 196 190 192 191 194
189 199 153 171 155 155 139 141 150 150 152 138 147 155 137 242 241 287 262 299 291 120 254 10 260 262 260 261 264 197 222 242 229 213 236 228 233 234 235 241 245 249 253 254 245 228 222 219 214 203 204 207 211 212 208 211 212 213 213 216 215 204 197 204 201 200 208 206 204 204 201 192 198 201 201 206 207 203 207 207 196 188 190 193 195 191
177 205 171 163 149 147 160 152 146 125 115 127 98 138 196 207 150 245 247 7 249 168 268 280 326 280 275 267 259 245 209 238 245 227 243 217 226 223 226 226 229 237 246 250 240 226 219 217 210 206 210 213 211 214 208 206 212 212 216 216 211 206 202 203 203 204 208 203 202 208 206 198 201 201 203 213 208 200 205 213 204 206 196 191 191 188
167 144 168 137 147 146 154 165 143 146 158 60 148 129 151 166 233 161 252 312 289 13 61 296 292 283 247 266 275 266 272 278 275 283 277 261 240 254 313 297 225 231 231 243 251 232 215 212 213 206 210 205 210 211 208 206 208 209 212 210 206 204 203 204 200 200 198 187 194 203 183 182 187 86 188 203 212 203 198 199 195 201 198 205 203 186
122 240 112 134 149 150 143 166 179 147 201 169 230 176 181 175 171 251 324 20 15 338 1 81 324 266 280 252 246 267 331 270 279 299 260 252 253 243 247 246 246 245 239 236 242 233 214 219 225 222 215 207 213 213 212 208 211 210 211 207 208 209 206 205 200 194 187 193 192 184 185 193 197 207 189 203 207 188 194 199 189 195 194 198 207 206
183 182 162 156 146 147 159 168 191 160 167 162 230 175 178 170 157 147 279 58 284 204 257 28 226 281 323 296 265 265 262 260 273 271 269 266 257 245 237 243 241 236 245 241 253 251 224 225 220 223 214 213 213 221 210 211 214 211 213 210 209 208 207 203 198 189 189 195 197 196 199 201 202 209 214 210 197 192 192 182 188 194 199 199 197 198
108 126 123 132 136 158 155 176 196 170 156 218 205 173 162 143 160 195 140 152 236 276 306 59 129 260 288 263 261 261 302 274 282 271 259 263 256 244 241 242 242 241 235 234 238 240 234 231 215 223 217 212 216 216 200 215 209 209 211 208 210 210 209 203 196 191 192 195 196 199 204 205 209 210 216 199 198 189 175 188 191 188 193 197 203 198
142 160 165 168 166 173 193 188 165 172 154 225 182 156 179 176 191 139 128 199 233 47 285 25 115 315 248 272 298 354 260 262 261 260 260 259 255 249 245 243 242 240 236 225 242 243 234 233 235 241 237 231 240 222 209 209 207 210 213 214 213 213 209 206 197 195 196 198 196 199 201 207 213 211 215 192 185 183 177 188 186 187 189 193 194 196
303 179 184 168 169 193 151 130 149 160 144 276 115 62 71 81 70 130 154 147 270 119 266 180 158 252 274 245 270 344 240 260 255 261 256 247 247 250 250 253 248 254 256 234 239 251 250 239 238 232 235 234 221 216 219 217 204 207 205 210 209 215 207 202 199 198 200 201 199 203 203 206 206 204 197 161 179 186 177 188 184 187 188 191 199 202
180 338 139 119 191 161 125 74 158 161 110 130 117 96 58 50 77 45 74 131 61 261 228 194 185 138 293 229 201 190 225 193 229 273 277 269 264 260 252 251 261 261 253 245 255 262 261 260 255 239 233 236 234 218 212 215 208 205 204 207 209 214 206 201 200 196 202 201 203 207 205 205 206 199 189 168 184 183 181 190 185 171 190 189 198 195
41 76 139 247 132 102 109 89 4 133 137 139 130 132 114 32 33 50 340 31 215 254 316 237 192 156 236 290 248 225 259 237 210 220 236 244 244 248 250 251 261 275 268 272 276 276 282 293 271 256 247 239 233 219 218 216 209 208 209 206 212 214 207 202 201 200 205 202 206 210 208 207 207 196 193 190 193 186 186 189 174 180 176 188 187 194
64 151 253 359 274 144 132 103 13 71 163 138 119 135 146 199 93 249 37 253 219 224 215 205 210 11 236 247 258 263 244 247 211 225 237 249 264 270 269 263 276 252 261 266 266 270 277 266 270 253 247 238 228 219 215 213 208 212 213 210 213 218 207 205 200 203 204 204 207 206 207 209 205 201 196 197 199 192 192 186 177 157 181 172 169 192
280 246 166 187 78 241 150 145 144 124 219 168 170 160 141 143 172 213 206 320 308 284 282 184 158 264 301 304 217 234 242 231 235 234 244 249 257 267 279 294 294 284 265 265 261 262 264 261 256 247 247 239 233 229 221 212 205 205 206 209 213 222 204 206 204 207 207 210 208 205 207 207 200 203 197 200 200 193 194 186 181 178 181 176 187 181
141 249 231 160 210 187 171 177 170 157 170 191 181 176 189 160 164 202 175 198 215 199 202 283 78 235 101 237 211 238 253 295 288 263 249 251 255 273 291 292 276 275 269 244 251 251 251 250 242 243 237 238 239 234 231 222 213 197 206 203 211 217 207 199 206 206 211 212 210 208 209 207 201 201 198 201 199 188 189 187 184 187 180 179 185 183
191 159 300 178 305 161 171 183 121 97 120 310 173 67 115 217 121 154 203 136 192 162 274 208 209 195 192 274 289 208 255 263 262 271 265 269 265 259 277 274 274 263 263 257 254 265 256 246 249 246 238 230 224 232 225 216 203 198 210 206 213 216 208 201 203 210 211 213 209 209 207 207 203 201 199 198 190 188 188 186 185 187 183 187 175 160
74 185 345 53 51 155 178 143 168 148 163 185 109 216 209 121 96 99 64 8 90 53 250 141 289 282 298 290 256 275 319 290 285 275 273 281 281 282 264 260 257 266 277 282 265 267 274 279 265 250 240 249 224 215 217 214 201 199 196 200 213 219 220 209 209 210 209 210 207 210 208 205 202 198 197 196 191 185 186 185 188 185 188 171 157 153
155 155 4 80 175 302 337 173 161 182 135 111 198 210 73 113 117 135 192 353 98 181 260 112 242 277 301 280 324 348 267 264 276 272 262 256 270 294 271 271 269 264 258 265 269 263 259 259 262 270 255 236 238 237 275 273 260 256 232 207 208 211 217 217 214 217 212 209 210 207 207 206 203 200 200 194 188 180 177 186 183 167 154 165 158 154
129 77 276 343 107 344 35 94 60 4 20 181 201 201 148 222 230 270 95 223 161 247 268 291 284 268 201 240 320 0 136 265 287 301 335 297 298 273 279 282 276 268 284 282 280 275 260 246 235 229 245 251 252 257 268 296 251 235 236 238 227 219 218 219 220 222 224 218 212 208 206 204 202 200 195 190 182 175 180 179 174 173 169 144 144 143
54 125 310 324 138 210 137 162 186 180 42 85 99 193 160 95 107 136 199 168 121 238 56 286 34 251 185 220 193 240 259 259 268 273 272 276 245 267 277 291 305 312 302 290 278 259 254 263 266 271 282 296 301 294 289 284 249 249 258 244 237 244 232 226 221 217 220 218 215 210 205 207 202 194 189 185 179 181 185 181 174 165 155 163 154 155
131 104 142 219 286 122 170 207 198 163 162 151 152 191 196 283 256 110 68 143 176 175 185 245 305 269 258 203 180 208 215 234 238 257 267 272 274 248 248 270 291 291 294 290 274 272 260 259 285 297 315 301 302 261 250 232 226 215 193 229 234 233 235 233 230 218 221 210 213 205 202 198 193 193 191 186 185 184 186 178 172 169 166 149 159 151
89 124 143 162 128 205 255 264 170 177 191 179 175 191 189 157 157 164 229 41 95 128 234 145 259 258 264 171 201 201 219 218 237 216 244 273 288 284 282 276 258 286 288 279 283 278 273 274 275 284 282 270 293 282 228 223 218 199 194 204 194 220 242 243 241 234 239 232 224 212 202 196 192 187 183 183 184 184 176 169 167 157 145 164 158 159
141 102 107 144 206 166 207 28 252 249 159 198 159 223 165 164 96 136 176 241 49 251 109 163 291 280 201 191 209 222 213 226 199 162 226 243 266 274 280 268 272 252 274 287 286 285 281 279 275 273 270 269 254 255 249 247 218 208 200 200 197 206 232 230 236 216 221 220 218 216 212 193 190 180 181 178 176 169 160 153 146 153 152 149 149 140
97 107 100 39 34 306 322 297 333 284 137 287 283 89 123 189 182 167 157 181 167 203 157 276 264 254 271 305 239 252 287 301 273 209 243 266 257 270 270 280 282 298 298 295 277 276 270 266 278 285 254 251 243 228 226 228 229 224 221 214 204 202 210 207 202 192 190 194 192 176 165 177 169 168 170 170 159 153 144 143 146 149 140 138 142 139
127 231 117 116 81 346 343 350 334 329 199 226 165 183 178 128 133 145 95 87 165 212 170 140 237 260 266 336 261 281 299 287 271 235 178 232 274 277 277 279 273 272 280 286 294 284 293 276 253 238 235 235 240 241 225 230 222 224 226 224 212 214 198 187 171 170 169 162 154 151 156 159 162 160 155 147 138 138 138 139 138 136 136 133 135 137
83 169 147 149 156 170 189 198 206 204 197 176 218 156 197 182 169 136 187 167 204 222 169 196 238 223 277 280 37 280 268 274 262 203 208 229 258 277 293 298 299 302 286 286 276 295 268 254 262 264 249 244 240 234 227 223 225 220 231 228 218 188 163 167 149 152 146 145 148 151 151 153 148 150 146 145 142 145 143 138 142 144 140 144 141 140
119 171 179 171 175 191 199 182 56 83 75 187 206 186 193 188 176 161 96 119 217 194 168 226 227 241 288 224 249 249 237 223 254 318 322 284 265 262 264 277 277 274 278 274 268 258 285 277 251 244 245 239 245 240 233 222 227 223 220 229 216 200 192 167 153 150 151 155 157 152 154 150 154 150 145 149 147 141 142 144 143 148 152 152 148 146
113 176 217 193 200 172 98 168 193 151 176 196 160 192 175 166 180 180 186 218 163 102 231 233 209 230 230 221 252 252 264 254 257 257 264 268 257 264 291 276 274 287 274 270 263 248 246 253 258 248 244 243 239 233 230 218 227 223 207 218 208 192 180 171 152 155 154 156 152 155 157 159 154 157 154 147 147 149 146 144 147 144 136 132 136 138
157 195 202 165 198 61 27 139 148 160 181 171 179 174 173 185 178 193 215 220 130 204 228 219 179 226 236 192 212 216 200 216 223 209 211 217 340 322 279 287 313 297 289 286 270 254 243 251 246 241 236 235 231 230 223 217 222 240 234 230 205 182 188 174 162 154 149 150 158 159 158 149 137 117 121 129 130 133 134 131 124 122 126 129 131 135
146 235 179 179 148 54 15 25 166 150 136 146 174 182 190 175 196 204 218 214 187 223 238 180 208 233 229 206 202 222 222 227 244 179 352 319 245 237 256 275 262 261 264 270 268 260 243 248 255 248 237 231 223 223 215 208 208 205 206 207 198 187 183 153 175 166 156 165 170 161 150 143 142 141 139 140 144 143 140 136 136 135 135 138 140 139
171 246 117 128 90 33 353 22 57 138 150 164 183 177 188 200 210 215 220 220 214 257 255 251 284 272 231 185 215 246 305 25 330 272 232 244 254 249 253 257 255 252 256 259 258 257 253 251 251 257 250 242 225 221 215 214 207 202 209 203 190 191 176 165 167 175 177 174 166 164 155 149 157 150 154 154 146 145 144 143 141 140 139 140 144 145
151 202 29 117 147 210 328 89 106 82 108 157 178 195 202 205 213 221 223 211 190 227 236 243 265 254 113 190 205 186 189 220 242 257 250 237 234 239 245 252 256 257 254 252 249 241 245 246 249 246 245 244 233 219 213 209 203 200 211 194 192 185 166 174 175 175 182 175 165 165 171 162 155 160 154 149 152 153 150 147 147 146 148 147 149 150
131 131 138 146 161 219 283 167 120 114 72 284 227 213 205 203 208 225 230 218 212 219 217 217 237 232 178 170 179 230 229 236 235 240 253 255 235 222 229 236 243 252 260 263 263 256 237 232 230 232 242 240 225 216 214 201 194 208 199 189 189 163 172 182 180 178 180 174 174 178 177 165 163 163 162 163 156 154 153 155 150 148 151 156 151 143
143 146 164 159 178 170 183 150 129 94 204 225 224 208 175 187 201 210 220 218 221 202 217 220 244 160 145 146 187 204 208 227 222 233 224 233 240 237 243 245 253 257 261 259 252 256 259 236 232 229 229 232 228 218 209 195 205 207 187 179 167 175 181 180 188 186 184 177 180 176 171 168 166 166 167 161 158 157 159 157 157 153 149 143 147 150
163 146 147 152 105 152 206 137 120 205 227 238 75 138 179 196 198 206 220 221 222 221 243 264 262 244 202 196 188 197 207 233 283 266 258 232 227 240 245 245 242 243 244 251 261 251 246 250 259 243 230 225 217 212 189 209 205 169 167 173 179 187 181 188 186 195 188 182 178 170 170 169 170 165 161 161 159 158 159 158 149 151 153 156 158 155
163 150 142 79 124 60 108 157 171 216 230 3 202 184 193 202 209 205 243 244 229 211 218 231 236 236 230 221 195 166 201 259 289 256 240 241 214 225 231 237 240 234 240 239 233 250 246 247 245 238 243 220 183 192 188 197 172 172 182 170 182 181 188 188 196 199 188 184 176 174 171 166 167 164 159 160 160 161 162 162 161 157 152 146 139 130
160 159 153 152 212 156 200 188 218 357 336 269 241 216 185 183 160 174 215 240 210 214 207 227 240 242 241 221 119 56 21 353 301 270 227 220 233 226 222 234 230 231 230 245 222 241 224 215 207 223 197 183 185 184 197 170 166 171 161 173 185 180 188 193 205 205 192 184 179 175 170 171 168 166 165 164 165 169 168 161 158 154 149 145 148 148
186 166 175 154 233 132 131 216 332 269 259 245 225 62 117 130 135 166 179 263 218 214 208 217 232 231 234 189 125 149 69 18 275 265 244 214 231 225 235 248 261 242 235 241 252 241 237 238 239 240 192 197 199 193 155 160 159 161 169 182 177 183 199 205 214 196 180 189 180 176 172 173 171 168 168 168 175 172 165 155 146 158 164 160 157 156
39 89 166 170 159 104 140 182 201 207 232 242 119 159 150 135 141 113 142 259 246 192 192 202 227 229 216 144 164 133 143 207 246 247 250 216 224 184 225 232 226 229 232 228 228 247 245 239 219 228 188 173 203 182 150 148 151 160 180 177 181 192 206 216 207 179 192 191 173 171 175 176 176 173 172 176 177 171 167 168 166 154 152 153 149 148
139 153 128 90 148 193 181 190 216 213 242 221 181 152 158 131 118 119 85 254 271 135 188 195 214 221 193 155 167 171 178 214 235 243 243 206 186 212 206 224 230 238 239 219 225 221 223 172 135 132 165 191 210 152 151 149 156 170 174 183 178 202 217 212 199 195 178 161 167 175 176 179 179 179 177 178 172 170 167 152 149 160 154 151 147 144
151 133 189 191 186 188 188 227 325 275 254 189 177 146 140 144 125 130 206 234 133 170 177 188 198 207 182 177 172 191 208 209 223 237 63 144 159 264 261 254 219 193 192 192 225 139 176 186 183 193 196 199 159 150 152 154 155 178 183 178 187 214 214 196 173 166 171 169 170 176 179 178 181 176 176 169 163 152 144 152 153 148 149 146 142 139
148 156 292 88 174 177 196 189 230 265 231 159 281 149 154 110 191 209 218 135 140 165 197 175 193 204 191 183 183 209 223 224 241 118 101 159 194 251 248 215 78 52 14 256 191 116 132 134 156 132 126 150 149 152 156 158 169 180 182 183 213 220 179 162 165 163 162 169 174 176 175 175 172 167 162 150 144 147 147 142 144 150 149 146 147 147
178 172 186 191 162 58 72 209 276 254 242 120 125 116 264 176 223 182 173 209 224 176 161 201 178 143 138 179 193 203 222 235 235 240 230 210 221 232 221 192 166 161 163 140 107 83 135 129 155 169 173 132 139 154 161 161 171 183 184 209 224 164 150 154 155 158 165 168 173 178 177 176 171 167 163 162 162 157 158 157 156 158 154 152 152 152
165 173 180 200 177 177 185 188 211 222 107 146 133 169 202 192 213 161 126 176 281 170 158 152 191 180 182 170 192 212 220 222 270 256 251 245 234 250 265 260 195 161 181 227 180 176 130 134 131 129 70 112 154 158 168 167 177 186 197 223 165 148 139 146 152 152 160 172 175 174 177 176 174 168 169 165 161 161 158 164 163 161 166 165 161 160
194 198 182 188 188 184 194 208 141 173 154 185 165 185 169 194 178 208 176 156 172 227 224 135 178 195 185 183 184 189 194 212 221 210 194 230 209 200 211 230 221 210 182 163 158 179 129 142 150 124 104 99 159 176 176 186 176 187 209 222 155 152 153 149 150 155 166 173 172 175 171 166 175 172 172 172 166 166 167 165 164 165 174 167 171 170
208 189 99 101 230 323 307 214 195 134 210 217 326 219 164 190 228 130 174 148 216 167 167 169 183 178 185 172 145 177 204 203 208 233 232 244 227 224 198 172 40 46 66 72 74 70 107 87 92 116 130 48 10 233 192 204 184 194 224 180 167 159 150 149 150 162 169 168 169 173 162 166 173 173 176 175 182 182 176 173 176 175 172 177 179 179
230 149 114 178 205 169 239 216 171 202 209 198 210 298 275 214 172 171 179 224 191 166 188 222 172 173 171 165 179 179 202 191 194 218 219 234 230 227 183 134 86 119 134 121 101 110 89 101 97 91 60 287 318 341 290 215 237 221 188 177 175 156 147 148 156 158 161 169 166 158 164 170 171 171 172 182 181 179 173 174 180 175 177 184 180 181
237 205 159 195 157 182 226 195 185 193 194 203 184 154 171 221 179 196 199 197 185 173 165 143 114 118 132 174 194 176 186 176 184 206 204 215 231 61 123 135 139 114 74 87 88 104 100 105 122 133 156 245 287 326 255 222 222 212 179 174 167 159 148 150 160 164 171 169 160 168 173 177 170 170 178 185 182 180 183 190 189 188 188 187 184 180
120 116 203 178 177 235 325 2 50 67 44 247 254 259 227 199 194 198 193 160 174 147 140 93 53 169 179 188 165 153 152 194 182 156 148 155 138 124 145 153 144 130 131 108 101 113 136 149 144 166 170 224 261 283 243 245 253 231 188 173 170 163 158 158 153 147 148 153 153 171 176 176 179 184 182 184 193 207 198 188 194 201 213 229 231 216
124 188 187 134 195 191 210 201 138 137 215 232 214 214 214 213 196 192 144 144 166 149 156 132 56 39 86 138 164 165 161 166 170 144 139 142 141 145 129 121 128 123 120 139 128 128 103 104 143 146 171 297 348 29 354 312 310 303 265 185 169 168 157 151 140 141 157 160 171 175 177 187 188 187 184 186 191 194 226 233 203 213 205 216 235 249
185 187 162 186 190 216 195 129 178 191 206 205 196 201 203 190 176 186 190 198 189 151 160 138 126 101 91 39 33 146 154 151 163 139 115 107 120 136 143 140 137 138 143 153 111 91 100 93 105 115 98 305 6 13 0 316 317 315 314 251 197 175 163 151 151 157 159 166 188 186 186 185 190 193 191 189 186 193 198 217 224 214 218 212 216 225